AO-07 1 07530U 74089B 24060.86046145 -.00000033 00000-0 85134-4 0 9991 2 07530 101.9746 54.5119 0011916 291.8373 131.6963 12.53672616255708 UO-11 1 14781U 84021B 24060.50738919 .00001731 00000-0 20332-3 0 9995 2 14781 97.6932 33.1704 0009805 77.8433 282.3881 14.86114172132341 AO-16 1 20439U 90005D 24060.58512828 .00000225 00000-0 98700-4 0 9990 2 20439 98.9006 62.6724 0010992 164.4775 309.6791 14.33291280782021 LO-19 1 20442U 90005G 24060.47690767 .00000254 00000-0 10883-3 0 9998 2 20442 98.8758 47.9317 0012376 140.3495 219.8595 14.33448661782203 AO-27 1 22825U 93061C 24060.42054697 .00000141 00000-0 71749-4 0 9995 2 22825 98.8049 111.9879 0009075 42.9422 317.2466 14.30433762587067 IO-26 1 22826U 93061D 24060.70755814 .00000155 00000-0 76696-4 0 9997 2 22826 98.7995 112.1402 0009347 28.0583 332.1101 14.30808666587631 FO-29 1 24278U 96046B 24060.87331965 .00000019 00000-0 52045-4 0 9992 2 24278 98.5693 9.7815 0351103 108.7816 255.1752 13.53173549360039 NOAA-15 1 25338U 98030A 24060.80157052 .00000212 00000-0 10601-3 0 9997 2 25338 98.5818 90.1338 0009245 282.3753 77.6392 14.26503359341983 GO-32 1 25397U 98043D 24060.89178471 .00000152 00000-0 86296-4 0 9990 2 25397 98.9083 26.0794 0002340 101.4248 258.7193 14.23993072332229 ISS 1 25544U 98067A 24060.93759946 .00018902 00000-0 34409-3 0 9997 2 25544 51.6415 131.8511 0006182 310.6147 221.3237 15.49509251441766 NO-44 1 26931U 01043C 24060.81863486 .00000225 00000-0 11652-3 0 9992 2 26931 67.0492 251.4934 0005233 276.2582 83.7923 14.31133749170606 SO-50 1 27607U 02058C 24060.58596260 .00002179 00000-0 31405-3 0 9995 2 27607 64.5551 195.2009 0037500 159.9250 200.3339 14.78407351140265 CO-55 1 27844U 03031E 24060.61047211 .00000470 00000-0 22773-3 0 9991 2 27844 98.6804 69.1523 0010915 99.1010 261.1404 14.23098431 72343 CO-57 1 27848U 03031J 24059.94017458 .00000401 00000-0 19909-3 0 9990 2 27848 98.6836 68.7947 0010725 114.9753 245.2540 14.22563211 72050 RS-22 1 27939U 03042A 24060.83444271 .00001582 00000-0 27576-3 0 9990 2 27939 98.2740 215.4566 0012918 46.3534 61.4717 14.69412166 92363 NOAA-18 1 28654U 05018A 24060.81053113 .00000241 00000-0 15267-3 0 9994 2 28654 98.8822 138.6560 0014239 14.6915 345.4669 14.13133878967950 CO-58 1 28895U 05043F 24060.81745220 .00002019 00000-0 36873-3 0 9997 2 28895 98.1825 196.6621 0015537 343.3049 16.7641 14.66978326978792 CO-65 1 32785U 08021C 24060.85731299 .00005852 00000-0 53788-3 0 9996 2 32785 97.7434 27.3078 0010391 337.6189 22.4577 14.95139547859354 AAUSAT2 1 32788U 08021F 24060.50123293 .00015584 00000-0 91071-3 0 9990 2 32788 97.5881 40.9462 0006373 166.8504 193.2893 15.11963967861875 CO-66 1 32791U 08021J 24060.44783238 .00007934 00000-0 62261-3 0 9997 2 32791 97.6855 32.5142 0004543 311.4790 48.6043 15.01194819860190 RS-30 1 32953U 08025A 24060.82510940 .00000050 00000-0 29066-3 0 9999 2 32953 82.5066 156.8828 0018503 344.2103 15.8398 12.43136380715663 PRISM 1 33493U 09002B 24060.58339713 .00013656 00000-0 75345-3 0 9992 2 33493 98.2220 99.2546 0012356 257.3359 102.6489 15.14033689822588 NOAA-19 1 33591U 09005A 24060.81769607 .00000203 00000-0 13344-3 0 9994 2 33591 99.0630 115.4072 0013145 235.2106 124.7829 14.12936901776327 SRMSAT 1 37841U 11058D 24060.51781497 .00000526 00000-0 14328-3 0 9996 2 37841 19.9716 94.0058 0011775 341.1113 170.4546 14.11045949639192 HRBE 1 37855U 11061F 24060.58232042 .00057938 00000-0 93008-3 0 9990 2 37855 101.6839 177.5082 0076759 318.4528 41.0889 15.49488223676075 RS-40 1 38735U 12041C 24060.88489355 .00000033 00000-0 16450-3 0 9991 2 38735 82.4719 237.3883 0018063 95.4008 264.9133 12.42604280525826 ZACUBE-1 1 39417U 13066B 24060.82146039 .00004006 00000-0 43471-3 0 9997 2 39417 97.7222 19.4354 0052878 156.7565 203.6060 14.87682391555467 Delfi-N3xt 1 39428U 13066N 24060.75126205 .00005476 00000-0 73017-3 0 9995 2 39428 97.8392 342.1182 0106273 79.7276 281.5896 14.76094434550263 GOMX-1 1 39430U 13066Q 24060.77084461 .00002216 00000-0 38033-3 0 9995 2 39430 97.7487 301.6813 0140543 237.0282 121.7345 14.63381490547183 LO-74 1 39440U 13066AA 24060.85938235 .00004413 00000-0 53980-3 0 9991 2 39440 97.8034 7.0541 0069858 267.9773 91.3439 14.82007455553487 AO-73 1 39444U 13066AE 24060.83843776 .00005572 00000-0 56800-3 0 9999 2 39444 97.7080 22.3351 0051212 139.0658 221.4423 14.90088721554558 SPROUT 1 39770U 14029E 24060.66911215 .00056850 00000-0 24459-2 0 9995 2 39770 98.0048 204.2804 0004471 214.5715 145.5230 15.22408684531029 DTUSAT-2 1 40030U 14033W 24060.83119584 .00004809 00000-0 42870-3 0 9994 2 40030 97.9974 10.6582 0010800 146.3675 213.8233 14.96450832526992 EO-80 1 40032U 14033Y 24060.60271584 .00006169 00000-0 54770-3 0 9993 2 40032 97.9962 10.4376 0011153 147.5467 212.6441 14.96491037526422 HODOYOSHI-1 1 40299U 14070B 24060.83263503 .00017100 00000-0 39823-3 0 9995 2 40299 97.1555 122.6459 0009772 73.9558 286.2765 15.42289896518395 XW-2C 1 40906U 15049H 24060.80222222 .00019640 00000-0 56403-3 0 9991 2 40906 97.4884 75.3180 0008398 344.1871 15.9109 15.35846453467805 XW-2D 1 40907U 15049J 24060.84157883 .00027634 00000-0 68398-3 0 9994 2 40907 97.4841 76.9728 0006419 335.1714 24.9223 15.40385269467976 LILACSAT-2 1 40908U 15049K 24060.87090591 .00007129 00000-0 29748-3 0 9993 2 40908 97.5291 68.9782 0013361 19.4319 340.7425 15.23902066466989 XW-2E 1 40909U 15049L 24060.82881528 .00262849 00000-0 13040-2 0 9996 2 40909 97.4211 89.0402 0003167 191.1829 168.9370 15.81278479469116 XW-2F 1 40910U 15049M 24060.61353098 .00235920 00000-0 13310-2 0 9991 2 40910 97.4318 87.9890 0002837 198.2235 161.8931 15.78502254468791 XW-2B 1 40911U 15049N 24060.82590596 .00026739 00000-0 67231-3 0 9999 2 40911 97.4817 77.1897 0006596 337.0618 23.0332 15.39911840467849 IO-86 1 40931U 15052B 24006.28856983 .00001263 00000-0 84248-4 0 9993 2 40931 6.0004 76.3799 0013541 291.8204 68.0484 14.77555377447321 ChubuSat-2 1 41338U 16012B 24060.56241003 .00004962 00000-0 31914-3 0 9994 2 41338 31.0031 9.1040 0012226 229.2236 130.7341 15.06753543441199 ChubuSat-3 1 41339U 16012C 24060.53606191 .00004364 00000-0 28314-3 0 9991 2 41339 31.0097 7.1727 0012163 234.5115 125.4387 15.06340992441176 Horyu-4 1 41340U 16012D 24060.41398932 .00009453 00000-0 51322-3 0 9990 2 41340 31.0035 322.7272 0011480 309.0461 50.9156 15.13175585441644 e-st@r-II 1 41459U 16025D 24060.90940417 .00114783 00000-0 12227-2 0 9993 2 41459 98.1437 297.8784 0051628 265.1847 94.3512 15.61916604432616 Lapan A3 1 41603U 16040E 24060.82565870 .00003049 00000-0 12744-3 0 9995 2 41603 97.1506 79.4866 0013831 121.3008 238.9586 15.24243016426714 Pratham 1 41783U 16059A 24060.78590974 .00000975 00000-0 19111-3 0 9992 2 41783 97.8471 85.1852 0032772 7.0991 353.0670 14.64555596396672 CAS-2T 1 41847U 16066G 24060.43455419 .00002209 00000-0 33050-3 0 9997 2 41847 98.4713 132.5322 0356540 144.6071 217.9355 14.40786208383839 CAS-4B 1 42759U 17034B 24060.85418072 .00011457 00000-0 47271-3 0 9991 2 42759 43.0127 116.8135 0011766 344.3062 15.7423 15.23992566370857 CAS-4A 1 42761U 17034D 24060.86407047 .00011311 00000-0 46561-3 0 9995 2 42761 43.0101 115.1864 0011474 347.0787 12.9768 15.24085473370866 NIUSat 1 42766U 17036B 24060.61066317 .00124006 00000-0 10021-2 0 9993 2 42766 97.1174 94.7972 0004365 201.7396 158.3682 15.70446261372506 Aalto 1 1 42775U 17036L 24060.59616783 .00035818 00000-0 60666-3 0 9991 2 42775 97.1224 90.2337 0004827 228.6158 131.4681 15.51451223372194 URSA MAIOR 1 42776U 17036M 24060.84781725 .00059296 00000-0 78442-3 0 9996 2 42776 97.1209 93.1697 0004565 212.0229 148.0750 15.58128494372395 Max Valier Sat 1 42778U 17036P 24060.61585987 .00050086 00000-0 63997-3 0 9992 2 42778 97.1221 96.9987 0004258 214.4599 145.6383 15.59094267372531 D-SAT 1 42794U 17036AF 24060.52193361 .00004273 00000-0 31600-3 0 9994 2 42794 97.4920 46.4487 0110958 153.2376 207.4633 14.98843761364462 TechnoSat 1 42829U 17042E 24060.76345814 .00002568 00000-0 23612-3 0 9997 2 42829 97.3818 247.9970 0013976 79.7679 280.5118 14.95524739360960 AO-91 1 43017U 17073E 24060.61554852 .00008971 00000-0 58373-3 0 9995 2 43017 97.5950 300.0418 0216819 296.2228 61.6847 14.90849843339474 TianYi 2 1 43155U 18008A 24060.89238178 .00041635 00000-0 96009-3 0 9999 2 43155 97.2567 114.2445 0009830 109.7086 250.5223 15.42409088338125 Zhou Enlai 1 43156U 18008B 24060.83264959 .00051626 00000-0 10549-2 0 9995 2 43156 97.2606 115.0710 0007521 111.2456 248.9597 15.45965323338080 TianYi 6 1 43158U 18008D 24060.65159090 .00026517 00000-0 75200-3 0 9993 2 43158 97.2700 109.8428 0009323 118.3233 241.8953 15.36168418337758 S-Net D 1 43186U 18014G 24060.46089461 .00004454 00000-0 33428-3 0 9996 2 43186 97.6020 324.2806 0011448 26.3171 333.8634 15.03083416332167 S-Net B 1 43187U 18014H 24060.46271506 .00004498 00000-0 33754-3 0 9990 2 43187 97.6025 324.2236 0012071 20.4778 339.6928 15.03077977332166 S-Net A 1 43188U 18014J 24060.26241280 .00004475 00000-0 33581-3 0 9998 2 43188 97.6031 324.1314 0012000 22.1293 338.0448 15.03082668332133 S-Net C 1 43189U 18014K 24060.26530462 .00004489 00000-0 33678-3 0 9994 2 43189 97.6045 324.0592 0013484 12.7395 347.4168 15.03078914330681 CubeBel-1 1 43666U 18083E 24060.72464342 .00984123 50048-3 16583-2 0 9991 2 43666 97.3298 104.7073 0005486 231.3761 128.7028 16.02851262297215 Changshagaoxin 1 43669U 18083H 24060.78800477 .00096834 00000-0 10666-2 0 9992 2 43669 97.3458 95.7475 0001836 233.5736 126.5353 15.62810770296728 Ten-Koh 1 43677U 18084G 24060.41487906 .00003106 00000-0 28941-3 0 9996 2 43677 98.0445 210.9455 0014684 21.4494 338.7338 14.94961767290462 PO-101 1 43678U 18084H 24060.84487949 .00002441 00000-0 23070-3 0 9990 2 43678 98.0550 215.8076 0009927 36.0045 324.1842 14.94647500290736 QO-100 1 43700U 18090A 24060.83099779 .00000155 00000-0 00000+0 0 9996 2 43700 0.0189 134.2129 0001101 221.5474 128.3041 1.00272764 19518 MinXSS-2 1 43758U 18099A 24060.71370652 .00007347 00000-0 50351-3 0 9995 2 43758 97.5686 124.9007 0017154 332.4422 27.5894 15.06219461286445 AO-95 1 43770U 18099N 24060.11039810 .00006246 00000-0 45969-3 0 9997 2 43770 97.5612 120.3865 0014663 17.4903 342.6824 15.03633605286166 RANGE-B 1 43772U 18099Q 24060.65521882 .00008838 00000-0 59821-3 0 9994 2 43772 97.5380 124.1120 0004670 285.4165 74.6546 15.06730221286360 RANGE-A 1 43773U 18099R 24060.62289929 .00003840 00000-0 30465-3 0 9996 2 43773 97.5214 117.3514 0018343 350.9317 9.1574 15.00966193286140 MOVE-II 1 43780U 18099Y 24060.12192398 .00012044 00000-0 72260-3 0 9997 2 43780 97.5357 124.4634 0007199 1.8826 358.2430 15.11065896286435 SNUSat 2 1 43782U 18099AA 24060.13798722 .00004176 00000-0 31422-3 0 9995 2 43782 97.5283 120.1384 0014284 318.9843 41.0308 15.02988068286182 SnugLite 1 43784U 18099AC 24060.69824313 .00005884 00000-0 43053-3 0 9994 2 43784 97.5116 120.1051 0003959 335.9797 24.1244 15.03951141286324 ITASat 1 1 43786U 18099AE 24060.43441292 .00004818 00000-0 36598-3 0 9991 2 43786 97.5272 120.8332 0017553 6.1756 353.9683 15.02509247286230 EAGLET 1 1 43790U 18099AJ 24060.66023819 .00003720 00000-0 29186-3 0 9998 2 43790 97.5350 121.4928 0014990 351.0681 9.0275 15.01454401285988 ESEO 1 43792U 18099AL 24060.61968240 .00001881 00000-0 16004-3 0 9992 2 43792 97.5315 118.9309 0011730 339.9601 20.1160 14.98938202285934 CSIM 1 43793U 18099AM 24060.43673402 .00010450 00000-0 62616-3 0 9998 2 43793 97.5426 126.4041 0013122 331.6215 28.4299 15.11101556286331 JO-97 1 43803U 18099AX 24060.67415176 .00005517 00000-0 39338-3 0 9991 2 43803 97.5346 121.8856 0009384 318.7608 41.2908 15.04929670286364 Suomi 100 1 43804U 18099AY 24060.67790651 .00005050 00000-0 36541-3 0 9991 2 43804 97.5424 121.6964 0015360 315.8826 44.1174 15.04357945286357 CHOMPTT 1 43855U 18104G 24060.83779561 .00107447 00000-0 94727-3 0 9992 2 43855 85.0210 347.8942 0010991 75.3441 284.9044 15.68301221290500 ISAT 1 43879U 18111D 24060.25627320 .00008359 00000-0 55458-3 0 9997 2 43879 97.6286 326.6950 0014508 19.7863 340.3924 15.07419418282999 UWE-4 1 43880U 18111E 24060.25215081 .00007145 00000-0 48229-3 0 9996 2 43880 97.6199 326.9584 0018430 26.5695 333.6473 15.06781304283010 Sparrow 1 43881U 18111F 24060.46096308 .00008441 00000-0 55355-3 0 9997 2 43881 97.6358 328.6065 0012525 57.8346 302.4096 15.07865918283087 AISTechSat 3 1 44103U 19018AB 24060.76886935 .00143106 00000-0 97082-3 0 9999 2 44103 97.2020 126.2656 0002385 44.9912 315.1546 15.74546405274480 AISat 1 1 44104U 19018AC 24060.83492043 .00058961 00000-0 52883-3 0 9995 2 44104 97.3626 165.0422 0023849 26.2281 334.0182 15.67746168275764 Prox-1 1 44339U 19036A 24060.77284655 .00008606 00000-0 15606-2 0 9998 2 44339 23.9987 201.3729 0008089 232.6612 127.3145 14.64147944249411 SONATE 1 44400U 19038Q 24060.87794177 .00014516 00000-0 51413-3 0 9999 2 44400 97.7103 50.6035 0019770 124.9521 235.3578 15.29045289257505 BeeSat 9 1 44412U 19038AC 24060.57510493 .00077359 00000-0 11460-2 0 9997 2 44412 97.6871 58.8360 0014259 99.3761 260.9105 15.54885596257767 JAISAT-1 1 44419U 19038F 24060.57521687 .00073551 00000-0 11080-2 0 9999 2 44419 97.6862 59.9173 0013770 99.3268 260.9543 15.54448485258148 Taurus 1 1 44530U 19059C 24060.80844971 .00004851 00000-0 11765-2 0 9993 2 44530 98.5635 178.3681 0011626 28.7584 331.4250 14.53360036236019 Duchifat 3 1 44854U 19089C 24060.86216075 .00010725 00000-0 60775-3 0 9992 2 44854 36.9592 344.6332 0010597 280.9496 79.0057 15.12432540231771 OPS-SAT 1 44878U 19092F 24060.51282209 .00080076 00000-0 10820-2 0 9997 2 44878 97.4551 260.8594 0005992 272.8760 87.1810 15.57471125233488 TO-108 1 44881U 19093C 24060.85432999 .00001140 00000-0 14554-3 0 9996 2 44881 97.8363 139.7300 0013620 321.3561 38.6677 14.83319822226984 FloripaSat 1 1 44885U 19093G 24060.78481042 .00004514 00000-0 48970-3 0 9992 2 44885 97.8457 144.3117 0012096 316.7785 43.2482 14.88613256227230 RS-44 1 44909U 19096E 24060.59584048 .00000034 00000-0 10079-3 0 9993 2 44909 82.5255 176.9173 0216423 305.2593 52.8425 12.79726904195080 BY70-2 1 45857U 20042B 24060.85667727 .00042551 00000-0 26950-2 0 9998 2 45857 97.9133 149.4688 0008636 228.2240 131.8250 15.08789751198117 UPMSat 2 1 46276U 20061E 24060.46686515 .00011723 00000-0 40756-3 0 9996 2 46276 97.3108 128.2522 0002220 122.3040 237.8416 15.29876721193535 AmicalSat 1 46287U 20061R 24060.71987926 .00018893 00000-0 65334-3 0 9990 2 46287 97.3636 128.4985 0001117 232.0519 128.0621 15.29945525192944 SALSAT 1 46495U 20068K 24060.42063829 .00006702 00000-0 40244-3 0 9992 2 46495 97.8043 17.2351 0013429 332.2684 27.7828 15.11179356187871 AO-109 1 47311U 21002C 24060.60194359 .00131365 00000-0 97493-3 0 9994 2 47311 60.6682 131.3514 0025367 66.8595 293.5184 15.71719141174209 ExoCube 2 1 47319U 21002L 24060.77299287 .00106666 00000-0 91025-3 0 9997 2 47319 60.6664 134.9327 0026261 69.3855 291.0066 15.68434882174124 UVSQ-SAT 1 47438U 21006AB 24060.41327939 .00026242 00000-0 72355-3 0 9996 2 47438 97.3441 120.2977 0006707 240.5355 119.5221 15.37071015171974 YUSAT 1 1 47439U 21006AC 24060.69721162 .00045369 00000-0 93926-3 0 9991 2 47439 97.3430 123.1695 0006156 230.9676 129.1026 15.45621603172186 SOMP 2b 1 47445U 21006AJ 24060.71099000 .00023882 00000-0 69463-3 0 9995 2 47445 97.3405 119.3127 0006559 247.8286 112.2262 15.35418486171965 IDEASSat 1 47458U 21006AX 24060.60158013 .00020695 00000-0 63397-3 0 9996 2 47458 97.3508 119.9289 0006210 248.8180 111.2399 15.33810783171904 CubeSX-Sirius-HSE 1 47951U 21022V 24060.90687557 .00011968 00000-0 54387-3 0 9997 2 47951 97.4726 319.8886 0016538 151.7385 208.4751 15.20785917162099 CubeSX-HSE 1 47952U 21022W 24060.80168300 .00013606 00000-0 61620-3 0 9996 2 47952 97.4724 319.8588 0016403 151.6298 208.5834 15.20872271162082 KSU-Cubesat 1 47954U 21022Y 24060.69833140 .00014454 00000-0 61833-3 0 9994 2 47954 97.4733 320.6647 0015699 147.8587 212.3610 15.22815635161845 GRBAlpha 1 47959U 21022AD 24060.77311128 .00012757 00000-0 57635-3 0 9994 2 47959 97.4729 319.9598 0016284 151.5276 208.6852 15.20974594160909 Orbicraft-Zorkiy 1 47960U 21022AE 24060.82197367 .00013441 00000-0 58214-3 0 9994 2 47960 97.4767 320.9487 0015766 148.5395 211.6788 15.22412483161644 STECCO 1 47962U 21022AG 24060.77831589 .00042316 00000-0 11221-2 0 9990 2 47962 97.4735 326.9526 0011197 116.8442 243.3948 15.38138772161368 MO-110 1 47964U 21022AJ 24060.47804109 .00048040 00000-0 11818-2 0 9999 2 47964 97.4754 327.8156 0012495 114.2273 246.0280 15.40392094161389 TUBIN 1 48900U 21059X 24060.81152293 .00013823 00000-0 53916-3 0 9995 2 48900 97.6285 202.7556 0008182 104.0629 256.1519 15.26023743148373 LEDSAT 1 49069U 21073D 24060.75278844 .00011071 00000-0 50501-3 0 9992 2 49069 97.4490 132.9079 0019960 306.1723 53.7666 15.20618696139955 CUTE 1 49263U 21088D 24060.65055870 .00011136 00000-0 59294-3 0 9995 2 49263 97.5110 127.6719 0016719 97.9267 262.3863 15.15272645133180 TeikyoSat 4 1 49396U 21102B 24060.59831910 .00002137 00000-0 16041-3 0 9993 2 49396 97.4776 109.2998 0011778 287.9095 72.0847 15.03618061126430 Z-Sat 1 49399U 21102E 24060.83203870 .00003455 00000-0 23306-3 0 9997 2 49399 97.4472 110.8606 0019527 269.3513 90.5478 15.07130252126664 KOSEN 1 1 49402U 21102H 24060.67623852 .00004895 00000-0 30658-3 0 9997 2 49402 97.4407 111.7998 0018102 254.1086 105.8149 15.09694422126768 HO-113 1 50466U 21131B 24060.83301984 .00000661 00000-0 22652-3 0 9990 2 50466 98.5317 146.4276 0005290 92.7359 267.4434 14.39390783114415 Tevel-3 1 50988U 22002E 24060.86667404 .00049130 00000-0 10837-2 0 9997 2 50988 97.3947 133.4573 0004346 39.5467 320.6098 15.43739257118237 Tevel-8 1 50989U 22002F 24060.76940765 .00044577 00000-0 98806-3 0 9994 2 50989 97.3966 133.4436 0004330 37.5259 322.6290 15.43617354118214 Tevel-5 1 50998U 22002Q 24060.79576696 .00053079 00000-0 10886-2 0 9993 2 50998 97.3938 134.2450 0004822 28.5925 331.5588 15.45868049118281 Tevel-6 1 50999U 22002R 24060.86130060 .00054505 00000-0 11193-2 0 9990 2 50999 97.3936 134.2953 0004784 27.9683 332.1822 15.45823319118299 Tevel-1 1 51013U 22002AF 24060.82272121 .00046263 00000-0 10247-2 0 9990 2 51013 97.3939 133.3021 0004170 39.3955 320.7595 15.43630521118226 IRIS-A 1 51044U 22002BN 24060.42014409 .00012903 00000-0 49348-3 0 9992 2 51044 97.3982 127.6539 0007740 63.8577 296.3457 15.26692186117800 Tevel-7 1 51062U 22002CG 24060.82862817 .00046476 00000-0 10269-2 0 9991 2 51062 97.3959 133.4753 0004280 37.8156 322.3392 15.43701959118220 Tevel-4 1 51063U 22002CH 24060.85135204 .00047424 00000-0 10543-2 0 9997 2 51063 97.3959 133.4366 0004278 37.7702 322.3845 15.43514851118220 Tevel-2 1 51069U 22002CP 24060.86642052 .00049073 00000-0 10815-2 0 9992 2 51069 97.3945 133.4239 0004290 38.7352 321.4203 15.43765886118231 SO-115 1 51080U 22002DA 24060.17504471 .00076896 00000-0 11767-2 0 9991 2 51080 97.4219 139.7669 0004584 55.5053 304.6632 15.54100542118408 SO-114 1 51081U 22002DB 24060.47906667 .00085157 00000-0 12528-2 0 9994 2 51081 97.4199 140.1948 0004549 55.8164 304.3520 15.55151640118464 OreSat0 1 52017U 22026K 24060.59566424 .00031160 00000-0 78629-3 0 9996 2 52017 97.5057 71.1623 0012972 244.5218 115.4686 15.39706283108933 Planetum 1 1 52738U 22057G 24060.30777656 .00025859 00000-0 83714-3 0 9999 2 52738 97.5530 183.4650 0005716 174.4307 185.6999 15.32005376 97856 Foresail-1 1 52766U 22057AL 24060.32130596 .00014269 00000-0 54030-3 0 9990 2 52766 97.5675 183.8091 0010648 151.2499 208.9328 15.26979253 97813 SNUGLITE 2 1 52899U 22065F 24060.40188228 .00001764 00000-0 37472-3 0 9997 2 52899 98.1001 203.8070 0008638 128.7175 231.4799 14.60283844 88382 IO-117 1 53106U 22080B 24052.39186089 -.00000003 00000-0 00000-0 0 9998 2 53106 70.1294 233.0989 0008303 129.7166 230.4226 6.42557771 37766 SelfieSat 1 53951U 22057BC 24060.61119416 .00040596 00000-0 10677-2 0 9997 2 53951 97.5567 185.9241 0006106 169.4001 190.7374 15.38446824 98012 FO-118 1 54684U 22167C 24060.85783174 .00019808 00000-0 83140-3 0 9995 2 54684 97.5895 203.8010 0011197 164.2855 195.8731 15.23450805 67770 SSS-2B 1 56184U 23054G 24060.73932738 .00019603 00000-0 61479-3 0 9991 2 56184 97.3827 318.4145 0007386 188.3962 171.7157 15.33066373 49480 CIRBE 1 56188U 23054L 24060.29003067 .00033534 00000-0 87812-3 0 9998 2 56188 97.3755 318.6390 0006443 170.7499 189.3866 15.38619232 49475 INSPIRE-Sat 7 1 56211U 23054AK 24060.71264363 .00034364 00000-0 85963-3 0 9997 2 56211 97.3795 320.0108 0010435 159.3731 200.7938 15.39981227 49596 RoseyCubesat 1 1 56212U 23054AL 24060.84250816 .00038780 00000-0 91866-3 0 9995 2 56212 97.3799 320.4704 0010467 156.0232 204.1504 15.41607820 49631 SO-120 1 56992U 23084BU 24060.55787923 .00017876 00000-0 80135-3 0 9995 2 56992 97.5193 179.4426 0014643 46.9388 313.3071 15.21188100 39632 MRC-100 1 56993U 23084BV 24060.56822871 .00020552 00000-0 89501-3 0 9990 2 56993 97.5196 179.6011 0014185 46.0523 314.1881 15.22155104 39650 UmKA 1 (RS40S) 1 57172U 23091G 24060.88436965 .00004755 00000-0 32955-3 0 9996 2 57172 97.6285 114.0729 0018442 128.1893 232.0999 15.05972694 37187 CubeBel-2 (EU11S) 1 57175U 23091K 24060.86339203 .00005249 00000-0 36199-3 0 9997 2 57175 97.6283 113.9366 0016959 138.8975 221.3533 15.06126381 37172 VERONIKA 1 58261U 23174F 24060.74593977 .00012219 00000-0 62888-3 0 9992 2 58261 97.4706 136.8806 0012251 260.6294 99.3554 15.16505114 17258 KAFASAT 1 58317U 23174BP 24060.75185124 .00015255 00000-0 73842-3 0 9991 2 58317 97.4653 137.0999 0011477 237.3928 122.6199 15.18607442 17277 ENSO 1 58470U 23185J 24060.79149929 .00010662 00000-0 50875-3 0 9998 2 58470 97.4401 128.9287 0012596 301.2938 58.7062 15.19183231 13665 EIRSAT-1 1 58472U 23185L 24060.78911989 .00010605 00000-0 50381-3 0 9991 2 58472 97.4395 128.9220 0012395 302.3737 57.6297 15.19337444 13667 SO-121 1 58567U 23174CY 24060.19685869 .00024392 00000-0 11586-2 0 9995 2 58567 97.4660 136.4819 0014036 250.2200 109.7521 15.19135183 17181 Clark sat-1 (AMBITIOUS) 1 58613U 98067WE 24060.62238317 .00155392 00000-0 13092-2 0 9999 2 58613 51.6335 128.6149 0009390 345.0018 15.0699 15.68762586 11478 BeliefSat-0 1 58695U 24001B 24060.18533334 .00321518 57769-5 74388-3 0 9994 2 58695 9.6639 331.6586 0006800 240.8984 119.0550 15.95206722 9367 /EX
